Regional Weather Roundup
Issued by NWS

Home | Current Version | Previous Version | Graphics & Text | Print | Product List | Glossary On
Versions: 1 2 3 4 5 6 7 8 9 10 11 12 13 14 15 16 17 18 19 20 21 22 23 24 25 26 27 28 29 30 31 32 33 34 35 36 37 38 39 40 41 42 43 44 45 46 47 48 49 50
000
ASUS43 KBIS 021010
RWRND

NORTH DAKOTA REGIONAL WEATHER ROUNDUP
NATIONAL WEATHER SERVICE BISMARCK ND
500 AM CDT THU JUL 02 2015

NOTE: "FAIR" INDICATES FEW OR NO CLOUDS BELOW 12,000 FEET WITH NO
SIGNIFICANT WEATHER AND/OR OBSTRUCTIONS TO VISIBILITY.


NDZ001>003-009>011-017-021100-
NORTHWEST NORTH DAKOTA

CITY           SKY/WX    TMP DP  RH WIND       PRES   REMARKS
WILLISTON      CLEAR     58  54  86 W9        29.99S
MINOT          PTCLDY    61  59  93 CALM      29.93S FOG
MINOT AFB      CLEAR     58  58 100 W1        29.92F FOG
$$

NDZ018>021-031>035-040>046-021100-
SOUTHWEST NORTH DAKOTA

CITY           SKY/WX    TMP DP  RH WIND       PRES   REMARKS
BISMARCK       TSTM      64  62  93 SW8       29.97R FOG
DICKINSON      PTCLDY    59  57  93 NW8       30.00S FOG
GARRISON         N/A     60  59  96 CALM      29.95S
HETTINGER ARPT CLEAR     57  55  93 CALM      30.03R FOG
$$

NDZ004>008-012>016-024-026-027-054-021100-
NORTHEAST NORTH DAKOTA

CITY           SKY/WX    TMP DP  RH WIND       PRES   REMARKS
GRAND FORKS    CLEAR     59  56  89 S5        29.95R
GRND FRKS AFB  CLEAR     59  56  90 S7        29.95R
DEVILS LAKE    MOCLDY    66  61  82 S6        29.92S
$$

NDZ022-023-025-028>030-036>039-047>053-021100-
SOUTHEAST NORTH DAKOTA

CITY           SKY/WX    TMP DP  RH WIND       PRES   REMARKS
FARGO          CLEAR     59  55  87 SE7       29.98R
JAMESTOWN      PTCLDY    62  60  93 S6        29.94F
$$



USA.gov is the U.S. government's official web portal to all federal, state and local government web resources and services.